Regional Weather Roundup
Issued by NWS Cleveland, OH

Current Version | Previous Version | Text Only | Print | Product List | Glossary On
Versions: 1 2 3 4 5 6 7 8 9 10 11 12 13 14 15 16 17 18 19 20 21 22 23 24 25 26 27 28 29 30 31 32 33 34 35 36 37 38 39 40 41 42 43 44 45 46 47 48 49 50
000
ASUS41 KCLE 240500
RWRCLE
OHIO REGIONAL WEATHER ROUNDUP
NATIONAL WEATHER SERVICE WILMINGTON, OH
100 AM EDT FRI MAR 24 2017

NOTE: "FAIR" INDICATES FEW OR NO CLOUDS BELOW 12,000 FEET WITH NO
SIGNIFICANT WEATHER AND/OR OBSTRUCTIONS TO VISIBILITY.

OHZ001>008-015>018-024>027-034-035-043-044-240600-
   NORTHWEST OHIO

CITY           SKY/WX    TMP DP  RH WIND       PRES   REMARKS
DEFIANCE       CLOUDY    41  36  82 E6        30.14R
FINDLAY        LGT RAIN  45  34  65 S10       30.15F
TOLEDO EXPRESS RAIN      38  35  89 SE5       30.15F FOG
TOLEDO EXEC    LGT RAIN  40  35  83 SE8       30.17F
LIMA           LGT RAIN  47  37  68 S7        30.16S
$$

OHZ009>014-019>023-028>033-038-089-240600-
   NORTHEAST OHIO

CITY           SKY/WX    TMP DP  RH WIND       PRES   REMARKS
CLE-HOPKINS    CLOUDY    47  10  22 S10       30.22F
CLE-LAKEFRONT  CLOUDY    46   8  21 SE17      30.19F
CUY CO. ARPT   NOT AVBL
LORAIN-ELYRIA  CLOUDY    45  13  27 S10       30.19F
ASHTABULA      MOCLDY    42  10  27 S12       30.23F
AKRON-CANTON   FAIR      42  10  27 SE8       30.22F
WOOSTER        NOT AVBL
MANSFIELD      CLOUDY    48  19  31 S12       30.19F
YOUNGSTOWN     MOCLDY    41   7  24 SE10      30.24F
$$

OHZ042-051>053-060>062-070>072-077>081-240600-
  SOUTHWEST OHIO

CITY           SKY/WX    TMP DP  RH WIND       PRES   REMARKS
CINC-COVINGTON FAIR      51  33  50 S7        30.19F
CINC-LUNKEN    FAIR      45  37  73 W3        30.21F
HAMILTON       FAIR      54  33  45 CALM      30.20S
DAYTON         NOT AVBL
WRIGHT-PAT AFB CLOUDY    50  29  44 CALM      30.19S
DAYTON GENERAL FAIR      50  31  48 S9        30.18F
WILMINGTON     MOCLDY    48  32  53 S6        30.19F
$$

OHZ036-037-039>041-045>050-054>059-063>069-073>076-082>088-240600-
  CENTRAL AND SOUTHEAST OHIO

CITY           SKY/WX    TMP DP  RH WIND       PRES   REMARKS
COLUMBUS       MOCLDY    51  21  30 SE7       30.21F
OSU AIRPORT    FAIR      50  23  34 S8        30.20F
BOLTON FIELD   NOT AVBL
RICKENBACK AFB NOT AVBL
NEWARK         CLOUDY    42  32  67 CALM      30.22S
MARION         CLOUDY    47  24  40 S10       30.19F
LANCASTER      MOCLDY    47  25  42 SE7       30.23S
ZANESVILLE     CLOUDY    43  22  43 CALM      30.23F
NEW PHILLY     FAIR      38  19  46 SE5       30.25F
$$




USA.gov is the U.S. government's official web portal to all federal, state and local government web resources and services.